Consulta les dades en temps real de l'estació municipal de El Brull
| Hora UTC | 16:00 |
|---|---|
| Temperatura | 30.8 ºC |
| Humitat | 36.0 % |
| Pressió | 1024.7 hPa |
| Pluja | 0.0 mm |
| Velocitat vent | 11.3 km/h |
| Direcció vent | SSW |
| Radiació solar | 361.1 W/m² |
| Temperatura (ºC) | Humitat (%) | Pressió (hPa) | Velocitat vent (km/h) | Precipitació (mm) | Radiació solar (W/m²) | |||||||||||||
|---|---|---|---|---|---|---|---|---|---|---|---|---|---|---|---|---|---|---|
| Hora UTC | Aire | Humitat | Pressió | Vel. | Dir. | Vel. Max | Dir. | Intent. màx 5 min. | Rad. Sol. | |||||||||
| 00:20 | 23.6 | 62.8 | 1024.4 | 0.9 | NE | 4.6 | NE | 0.0 | 0.0 | |||||||||
| 00:30 | 23.8 | 63.0 | 1024.4 | 0.2 | ENE | 1.6 | ENE | 0.0 | 0.0 | |||||||||
| 00:40 | 23.6 | 63.7 | 1024.4 | 0.4 | NE | 1.5 | NE | 0.0 | 0.0 | |||||||||
| 00:50 | 23.4 | 65.0 | 1024.3 | 1.1 | NE | 4.1 | ENE | 0.0 | 0.0 | |||||||||
| 01:00 | 23.4 | 65.4 | 1024.3 | 0.3 | ENE | 3.1 | ENE | 0.0 | 0.0 | |||||||||
| 01:10 | 23.5 | 64.7 | 1024.3 | 0.0 | NNE | 0.0 | 0.0 | 0.0 | ||||||||||
| 01:20 | 23.6 | 64.4 | 1024.3 | 0.3 | ENE | 2.9 | ENE | 0.0 | 0.0 | |||||||||
| 01:30 | 23.5 | 64.2 | 1024.3 | 0.1 | N | 2.1 | NNW | 0.0 | 0.0 | |||||||||
| 01:40 | 23.5 | 64.0 | 1024.3 | 0.0 | NNE | 0.0 | 0.0 | 0.0 | ||||||||||
| 01:50 | 23.5 | 63.4 | 1024.3 | 0.1 | NNE | 2.4 | NNW | 0.0 | 0.0 | |||||||||
| 02:00 | 22.9 | 65.4 | 1024.3 | 0.1 | NNE | 1.5 | NE | 0.0 | 0.0 | |||||||||
| 02:20 | 23.1 | 63.2 | 1024.2 | 1.7 | ENE | 4.1 | ESE | 0.0 | 0.0 | |||||||||
| 02:30 | 23.6 | 58.9 | 1024.2 | 1.9 | ESE | 4.4 | ESE | 0.0 | 0.0 | |||||||||
| 02:40 | 24.3 | 54.0 | 1024.2 | 1.8 | ESE | 4.8 | SE | 0.0 | 0.0 | |||||||||
| 02:50 | 24.9 | 53.2 | 1024.2 | 0.1 | E | 1.8 | SE | 0.0 | 0.0 | |||||||||
| 03:00 | 24.7 | 54.6 | 1024.2 | 0.3 | SE | 3.9 | SE | 0.0 | 0.0 | |||||||||
| 03:10 | 24.7 | 52.3 | 1024.1 | 1.0 | ESE | 6.2 | SE | 0.0 | 0.0 | |||||||||
| 03:20 | 24.8 | 50.0 | 1024.1 | 2.2 | ESE | 6.2 | SE | 0.0 | 0.0 | |||||||||
| 03:30 | 24.7 | 51.4 | 1024.2 | 2.1 | ENE | 6.6 | N | 0.0 | 0.0 | |||||||||
| 03:50 | 23.9 | 54.9 | 1024.2 | 1.7 | NNW | 5.8 | NNW | 0.0 | 0.0 | |||||||||
| 04:00 | 23.8 | 51.9 | 1024.2 | 1.0 | ESE | 2.9 | ESE | 0.0 | 0.0 | |||||||||
| 04:10 | 24.1 | 49.0 | 1024.2 | 1.5 | ESE | 4.1 | ESE | 0.0 | 0.0 | |||||||||
| 04:20 | 24.3 | 47.9 | 1024.1 | 2.4 | ESE | 5.5 | SE | 0.0 | 0.0 | |||||||||
| 04:30 | 24.2 | 48.2 | 1024.2 | 2.7 | ESE | 6.7 | SE | 0.0 | 0.0 | |||||||||
| 04:40 | 24.2 | 48.6 | 1024.3 | 2.7 | SE | 3.9 | ESE | 0.0 | 0.0 | |||||||||
| 04:50 | 24.1 | 49.2 | 1024.4 | 2.8 | SE | 5.1 | ESE | 0.0 | 0.0 | |||||||||
| 05:00 | 23.9 | 49.8 | 1024.4 | 2.5 | ESE | 4.0 | ESE | 0.0 | 0.1 | |||||||||
| 05:10 | 24.1 | 49.2 | 1024.4 | 2.5 | SE | 4.8 | ESE | 0.0 | 0.5 | |||||||||
| 05:20 | 24.3 | 49.0 | 1024.5 | 3.8 | ESE | 6.8 | ESE | 0.0 | 1.8 | |||||||||
| 05:30 | 24.9 | 47.6 | 1024.5 | 3.5 | ESE | 7.3 | ESE | 0.0 | 4.8 | |||||||||
| 05:40 | 25.0 | 46.9 | 1024.5 | 3.3 | ESE | 6.5 | SE | 0.0 | 12.0 | |||||||||
| 05:50 | 25.1 | 46.9 | 1024.6 | 2.3 | ESE | 6.2 | SE | 0.0 | 20.8 | |||||||||
| 06:00 | 25.1 | 47.2 | 1024.6 | 2.3 | ESE | 6.8 | SE | 0.0 | 29.9 | |||||||||
| 06:10 | 25.1 | 47.3 | 1024.7 | 2.7 | ESE | 5.2 | SE | 0.0 | 38.6 | |||||||||
| 06:20 | 25.3 | 46.8 | 1024.7 | 2.5 | SE | 5.8 | SE | 0.0 | 48.3 | |||||||||
| 06:30 | 25.7 | 45.9 | 1024.9 | 2.5 | SE | 5.5 | ESE | 0.0 | 58.0 | |||||||||
| 06:40 | 26.2 | 45.0 | 1025.0 | 1.4 | SE | 3.4 | SE | 0.0 | 116.7 | |||||||||
| 06:50 | 27.0 | 44.2 | 1025.1 | 1.5 | SSE | 3.8 | SSE | 0.0 | 163.8 | |||||||||
| 07:00 | 27.7 | 44.0 | 1025.1 | 3.6 | SE | 6.9 | SE | 0.0 | 197.5 | |||||||||
| 07:10 | 27.9 | 42.9 | 1025.1 | 4.8 | SE | 8.5 | SSE | 0.0 | 229.5 | |||||||||
| 07:20 | 28.4 | 41.5 | 1025.2 | 4.2 | SSE | 7.8 | SSE | 0.0 | 260.5 | |||||||||
| 07:30 | 28.9 | 40.4 | 1025.2 | 3.6 | SSE | 6.7 | ESE | 0.0 | 292.1 | |||||||||
| 07:40 | 29.4 | 38.4 | 1025.2 | 3.7 | S | 7.4 | SSE | 0.0 | 323.9 | |||||||||
| 07:50 | 29.5 | 38.5 | 1025.3 | 3.6 | S | 6.9 | S | 0.0 | 354.0 | |||||||||
| 08:00 | 29.7 | 39.2 | 1025.3 | 4.4 | S | 7.3 | S | 0.0 | 384.5 | |||||||||
| 08:10 | 29.7 | 39.2 | 1025.4 | 5.0 | SSW | 8.7 | SSW | 0.0 | 414.7 | |||||||||
| 08:20 | 29.9 | 39.7 | 1025.4 | 5.7 | SSW | 9.9 | SW | 0.0 | 445.0 | |||||||||
| 08:30 | 30.3 | 38.4 | 1025.5 | 5.6 | SSW | 12.1 | SSW | 0.0 | 471.5 | |||||||||
| 08:40 | 30.5 | 37.0 | 1025.5 | 5.5 | SSW | 13.1 | SW | 0.0 | 500.5 | |||||||||
| 08:50 | 30.9 | 35.8 | 1025.6 | 5.2 | SSW | 11.2 | S | 0.0 | 527.5 | |||||||||
| 09:00 | 31.0 | 35.3 | 1025.7 | 5.7 | SSW | 11.5 | SSW | 0.0 | 551.5 | |||||||||
| 09:10 | 31.5 | 34.6 | 1025.8 | 6.2 | SSW | 12.0 | S | 0.0 | 575.7 | |||||||||
| 09:20 | 31.5 | 35.3 | 1025.8 | 6.8 | SSW | 16.1 | SSW | 0.0 | 599.2 | |||||||||
| 09:30 | 31.6 | 34.9 | 1025.9 | 7.2 | SSW | 14.3 | S | 0.0 | 621.9 | |||||||||
| 09:50 | 32.3 | 33.2 | 1025.9 | 8.9 | SSW | 15.9 | S | 0.0 | 663.0 | |||||||||
| 10:00 | 32.5 | 31.1 | 1025.9 | 9.4 | SSW | 17.3 | S | 0.0 | 682.9 | |||||||||
| 10:10 | 33.4 | 30.3 | 1025.8 | 10.4 | S | 22.6 | SSW | 0.0 | 699.2 | |||||||||
| 10:20 | 33.3 | 29.2 | 1025.8 | 11.7 | S | 18.8 | SSW | 0.0 | 714.9 | |||||||||
| 10:30 | 33.5 | 28.7 | 1025.8 | 10.2 | SSW | 19.9 | SSW | 0.0 | 729.8 | |||||||||
| 10:40 | 33.5 | 28.8 | 1025.8 | 9.3 | SSW | 20.5 | SW | 0.0 | 741.7 | |||||||||
| 10:50 | 33.6 | 29.1 | 1025.7 | 11.7 | SSW | 20.8 | SSW | 0.0 | 753.1 | |||||||||
| 11:00 | 34.0 | 28.5 | 1025.7 | 10.9 | SSW | 20.6 | SSW | 0.0 | 762.5 | |||||||||
| 11:10 | 33.4 | 28.6 | 1025.7 | 11.5 | S | 22.3 | SSW | 0.0 | 769.9 | |||||||||
| 11:20 | 33.8 | 28.6 | 1025.6 | 10.7 | SSW | 23.2 | SSW | 0.0 | 776.6 | |||||||||
| 11:30 | 34.4 | 27.5 | 1025.7 | 10.4 | SSW | 19.2 | SSW | 0.0 | 780.6 | |||||||||
| 11:40 | 34.3 | 27.6 | 1025.7 | 11.9 | SSW | 21.9 | SSW | 0.0 | 783.4 | |||||||||
| 11:50 | 34.1 | 28.2 | 1025.7 | 12.9 | SSW | 21.3 | S | 0.0 | 785.4 | |||||||||
| 12:00 | 33.8 | 28.9 | 1025.6 | 12.8 | SSW | 24.7 | SSW | 0.0 | 784.5 | |||||||||
| 12:10 | 33.4 | 29.5 | 1025.6 | 12.1 | SSW | 23.8 | SSW | 0.0 | 782.1 | |||||||||
| 12:20 | 33.4 | 29.4 | 1025.6 | 11.3 | SSW | 23.8 | S | 0.0 | 778.5 | |||||||||
| 12:30 | 33.5 | 29.1 | 1025.5 | 11.2 | SSW | 21.3 | SSW | 0.0 | 773.2 | |||||||||
| 12:40 | 33.7 | 28.8 | 1025.4 | 10.6 | SSW | 22.7 | SSW | 0.0 | 767.6 | |||||||||
| 12:50 | 33.6 | 28.9 | 1025.4 | 10.9 | SSW | 20.5 | SSW | 0.0 | 759.5 | |||||||||
| 13:00 | 33.9 | 29.1 | 1025.3 | 10.0 | SSW | 24.2 | SW | 0.0 | 749.7 | |||||||||
| 13:10 | 33.9 | 29.1 | 1025.3 | 10.2 | SSW | 19.8 | SSW | 0.0 | 737.4 | |||||||||
| 13:20 | 33.8 | 29.5 | 1025.2 | 12.0 | SSW | 20.7 | S | 0.0 | 724.3 | |||||||||
| 13:30 | 33.4 | 30.0 | 1025.2 | 11.1 | SSW | 23.4 | SSW | 0.0 | 706.5 | |||||||||
| 13:40 | 32.9 | 30.7 | 1025.1 | 11.6 | SSW | 23.3 | SSW | 0.0 | 685.4 | |||||||||
| 13:50 | 33.0 | 30.8 | 1025.0 | 12.3 | SSW | 21.3 | SSW | 0.0 | 662.2 | |||||||||
| 14:00 | 32.8 | 31.0 | 1025.0 | 11.4 | SSW | 23.1 | S | 0.0 | 643.9 | |||||||||
| 14:10 | 32.7 | 31.3 | 1025.0 | 11.9 | SSW | 23.1 | SSW | 0.0 | 614.2 | |||||||||
| 14:20 | 32.6 | 31.6 | 1024.9 | 11.3 | SSW | 24.1 | S | 0.0 | 613.7 | |||||||||
| 14:30 | 32.5 | 31.7 | 1024.9 | 13.0 | SSW | 26.2 | S | 0.0 | 595.3 | |||||||||
| 14:40 | 32.2 | 32.2 | 1024.9 | 14.2 | SSW | 26.2 | S | 0.0 | 567.3 | |||||||||
| 14:50 | 32.1 | 32.4 | 1024.7 | 12.6 | SW | 25.0 | S | 0.0 | 525.3 | |||||||||
| 15:00 | 32.1 | 32.4 | 1024.8 | 11.8 | SSW | 22.3 | S | 0.0 | 514.6 | |||||||||
| 15:10 | 31.6 | 34.4 | 1024.7 | 13.7 | SSW | 24.7 | SSW | 0.0 | 480.0 | |||||||||
| 15:20 | 31.6 | 34.2 | 1024.7 | 10.6 | SSW | 20.9 | SSW | 0.0 | 464.3 | |||||||||
| 15:30 | 31.2 | 35.4 | 1024.7 | 11.5 | SSW | 21.6 | SSW | 0.0 | 426.4 | |||||||||
| 15:40 | 31.0 | 35.8 | 1024.6 | 11.1 | SSW | 25.4 | SSW | 0.0 | 386.2 | |||||||||
| 15:50 | 30.9 | 36.1 | 1024.6 | 11.6 | SSW | 21.4 | SSW | 0.0 | 378.8 | |||||||||
| 16:00 | 30.8 | 36.0 | 1024.7 | 11.3 | SSW | 21.6 | SSW | 0.0 | 361.1 | |||||||||
| Màxima | 34.4 | 65.4 | 1025.9 | 14.2 | SSW | 26.2 | S | 0.0 | 785.4 | |||||||||
| Mínima | 20 | 27.5 | 1024.1 | |||||||||||||||
| Total | 0.0 | |||||||||||||||||